星链-3650 (STARLINK-3650 )

导读

STARLINK-3650是美国SpaceX公司于2022年3月9日发射的星链低轨互联网卫星,属于Starlink星座组网的一员。该卫星运行于近地轨道,依托星链星座的相控阵天线、空间激光链路等技术,可提供低时延高速互联网接入服务,重点为全球偏远、网络基础设施匮乏地区提供宽带网络覆盖,助力全球互联。

Basic Information
目录编号:
51982
目录名称:
STARLINK-3650
国际标识:
2022-025AC
轨道中心:
EARTH
卫星名称:
星链-3650
卫星全名:
星链-3650 (STARLINK-3650 )
卫星状态:
已陨落 最后检测时间 2024-12-31
发射日期:
2022-03-09 UTC
国别 :
美国 (US)
星等 :
--
Orbit Information
数据来源 国际轨道数据
星历时间: 2025-01-01T08:26:03+0800
轨道信息已过期532天
半长轴: 6546.008km
偏心率: 0.0003465
轨道倾角: 53.198°
近地点辐角 284.668°
升交点赤经 160.834°
平近点角 188.774°
近地点: 165.604km
远地点: 170.142km
周期: 87.846分钟
每日圈数: 16.39223
Detailed Information
固有亮度:
5
最大亮度:
2.5
卫星平台:
Starlink v1.5
覆盖范围:
全球
运营商:
太空探索技术公司
运营商所在国:
美国
制造商(研发单位):
太空探索技术公司
制造商所在国:
美国
使用方式:
暂无
Satellite Introduction
星链(Starlink)计划是由太空探索技术公司(SpaceX)提出的一个巨型低轨卫星互联网星座项目,计划在2019年至2024年间在太空搭建由约1.2万颗卫星组成的“星链”网络,其中1584颗将部署在地球上空550千米处的近地轨道,并从2020年开始工作。该卫星仍在工作。